QPF
0.00 0.00 0.00 0.00 0.00 0.00 0.00 0.00 0.00 0.00 0.00 0.00 0.00 0.00 0.01 0.01 0.01 0.01 0.01 0.01 0.01 0.01 0.01 0.02 0.04 0.05 0.07 0.06 0.07 0.06 0.05 0.05 0.06 0.06 0.06 0.06 0.05 0.03 0.04 0.05 0.06 0.06 0.06 0.06 0.06 0.05 0.04 0.03 0.02
0.00 0.00 0.00 0.00 0.01 0.00 0.00 0.00 0.00 0.00 0.00 0.00 0.00 0.00 0.00 0.00 0.00 0.01 0.01 0.01 0.01 0.01 0.01 0.01 0.02 0.04 0.06 0.06 0.06 0.06 0.06 0.05 0.05 0.06 0.07 0.06 0.05 0.04 0.03 0.04 0.06 0.06 0.07 0.05 0.04 0.04 0.03 0.03 0.02
0.00 0.00 0.00 0.01 0.00 0.00 0.00 0.00 0.00 0.00 0.00 0.00 0.00 0.00 0.00 0.00 0.00 0.01 0.01 0.01 0.02 0.02 0.01 0.01 0.01 0.02 0.04 0.06 0.05 0.06 0.06 0.06 0.06 0.06 0.07 0.06 0.05 0.05 0.04 0.03 0.05 0.06 0.05 0.04 0.04 0.02 0.02 0.03 0.02
0.00 0.00 0.00 0.00 0.00 0.00 0.00 0.00 0.00 0.00 0.00 0.00 0.00 0.00 0.00 0.00 0.01 0.01 0.01 0.02 0.02 0.02 0.02 0.02 0.02 0.02 0.03 0.06 0.06 0.05 0.06 0.06 0.07 0.07 0.07 0.07 0.06 0.04 0.04 0.04 0.05 0.05 0.04 0.04 0.03 0.02 0.02 0.02 0.01
0.00 0.00 0.00 0.00 0.00 0.00 0.00 0.00 0.00 0.01 0.00 0.00 0.01 0.00 0.00 0.01 0.00 0.01 0.01 0.01 0.02 0.02 0.02 0.02 0.02 0.02 0.03 0.06 0.08 0.06 0.06 0.06 0.06 0.08 0.09 0.09 0.08 0.05 0.03 0.05 0.04 0.04 0.04 0.03 0.03 0.03 0.01 0.02 0.02
0.00 0.00 0.00 0.00 0.00 0.00 0.00 0.00 0.00 0.00 0.00 0.00 0.01 0.01 0.01 0.01 0.00 0.00 0.01 0.01 0.02 0.02 0.02 0.03 0.03 0.03 0.03 0.04 0.08 0.09 0.07 0.06 0.06 0.08 0.10 0.11 0.11 0.07 0.03 0.04 0.04 0.04 0.04 0.03 0.03 0.03 0.02 0.02 0.02
0.00 0.00 0.00 0.00 0.00 0.00 0.00 0.00 0.00 0.00 0.00 0.00 0.00 0.00 0.00 0.00 0.00 0.00 0.00 0.01 0.01 0.01 0.01 0.01 0.01 0.02 0.03 0.03 0.07 0.10 0.09 0.07 0.05 0.07 0.09 0.10 0.11 0.09 0.04 0.03 0.02 0.03 0.03 0.03 0.04 0.04 0.02 0.02 0.02
0.00 0.00 0.00 0.00 0.00 0.00 0.00 0.00 0.00 0.00 0.00 0.00 0.00 0.00 0.00 0.00 0.00 0.00 0.00 0.01 0.01 0.01 0.01 0.01 0.01 0.01 0.01 0.02 0.05 0.09 0.10 0.09 0.07 0.06 0.09 0.10 0.10 0.09 0.06 0.03 0.02 0.03 0.03 0.03 0.04 0.04 0.02 0.02 0.01
0.00 0.00 0.00 0.00 0.00 0.00 0.00 0.01 0.00 0.00 0.00 0.00 0.00 0.00 0.00 0.00 0.00 0.00 0.01 0.01 0.01 0.01 0.01 0.01 0.01 0.01 0.01 0.02 0.05 0.08 0.11 0.11 0.09 0.09 0.09 0.12 0.12 0.12 0.11 0.07 0.04 0.03 0.02 0.03 0.05 0.04 0.02 0.02 0.01
0.00 0.00 0.00 0.00 0.00 0.00 0.00 0.01 0.01 0.00 0.00 0.00 0.00 0.00 0.00 0.00 0.00 0.00 0.01 0.01 0.02 0.02 0.02 0.02 0.01 0.01 0.02 0.03 0.04 0.06 0.10 0.12 0.11 0.10 0.10 0.12 0.15 0.14 0.14 0.10 0.06 0.04 0.02 0.04 0.05 0.03 0.01 0.01 0.02
0.00 0.00 0.00 0.00 0.00 0.00 0.00 0.01 0.01 0.01 0.01 0.00 0.00 0.00 0.00 0.00 0.00 0.00 0.01 0.01 0.02 0.02 0.02 0.02 0.01 0.01 0.01 0.02 0.04 0.06 0.09 0.13 0.12 0.10 0.10 0.11 0.13 0.12 0.12 0.11 0.08 0.06 0.03 0.05 0.06 0.04 0.02 0.02 0.02
0.00 0.00 0.00 0.00 0.01 0.00 0.01 0.01 0.01 0.01 0.01 0.00 0.01 0.00 0.00 0.00 0.00 0.00 0.01 0.01 0.01 0.02 0.02 0.02 0.02 0.02 0.02 0.02 0.03 0.05 0.09 0.14 0.14 0.11 0.09 0.09 0.11 0.10 0.10 0.13 0.10 0.07 0.04 0.05 0.06 0.04 0.02 0.01 0.01
0.00 0.00 0.00 0.01 0.01 0.01 0.01 0.01 0.01 0.01 0.01 0.01 0.01 0.01 0.01 0.01 0.00 0.00 0.01 0.03 0.02 0.01 0.03 0.05 0.05 0.03 0.02 0.02 0.02 0.03 0.07 0.13 0.17 0.13 0.10 0.07 0.08 0.08 0.09 0.13 0.13 0.10 0.06 0.04 0.05 0.05 0.03 0.02 0.01
0.00 0.00 0.00 0.00 0.01 0.01 0.01 0.01 0.01 0.00 0.00 0.01 0.01 0.01 0.01 0.01 0.01 0.01 0.01 0.02 0.03 0.03 0.06 0.07 0.04 0.03 0.02 0.03 0.03 0.03 0.06 0.11 0.16 0.16 0.14 0.10 0.07 0.07 0.09 0.11 0.13 0.11 0.07 0.05 0.05 0.05 0.04 0.02 0.02
0.00 0.00 0.00 0.00 0.01 0.01 0.02 0.01 0.00 0.00 0.01 0.02 0.02 0.02 0.01 0.01 0.01 0.01 0.00 0.00 0.01 0.03 0.05 0.05 0.03 0.03 0.03 0.03 0.03 0.03 0.05 0.10 0.15 0.15 0.14 0.14 0.11 0.09 0.10 0.10 0.11 0.10 0.07 0.05 0.04 0.05 0.04 0.02 0.02
0.00 0.01 0.00 0.00 0.00 0.01 0.02 0.01 0.01 0.01 0.01 0.02 0.02 0.02 0.01 0.01 0.01 0.01 0.00 0.00 0.00 0.01 0.02 0.03 0.03 0.03 0.03 0.03 0.02 0.03 0.05 0.09 0.15 0.17 0.14 0.12 0.11 0.11 0.10 0.10 0.10 0.08 0.06 0.05 0.04 0.04 0.04 0.02 0.02
0.01 0.01 0.00 0.00 0.00 0.01 0.02 0.01 0.01 0.01 0.01 0.01 0.02 0.02 0.01 0.01 0.01 0.01 0.00 0.00 0.00 0.00 0.00 0.01 0.02 0.02 0.03 0.03 0.02 0.02 0.05 0.08 0.14 0.18 0.17 0.13 0.09 0.09 0.10 0.10 0.11 0.09 0.07 0.06 0.06 0.04 0.04 0.02 0.02
0.01 0.01 0.00 0.00 0.00 0.01 0.01 0.01 0.01 0.01 0.01 0.01 0.02 0.02 0.01 0.01 0.01 0.01 0.00 0.00 0.01 0.00 0.00 0.01 0.02 0.02 0.03 0.04 0.02 0.02 0.04 0.07 0.12 0.16 0.19 0.16 0.11 0.08 0.08 0.09 0.11 0.10 0.09 0.08 0.07 0.05 0.04 0.02 0.01
0.01 0.01 0.01 0.00 0.00 0.01 0.01 0.00 0.01 0.01 0.01 0.01 0.02 0.03 0.02 0.01 0.01 0.01 0.01 0.01 0.01 0.01 0.01 0.01 0.02 0.03 0.04 0.04 0.04 0.02 0.03 0.06 0.12 0.15 0.19 0.19 0.13 0.09 0.09 0.10 0.11 0.10 0.10 0.10 0.10 0.07 0.05 0.02 0.01
0.01 0.01 0.01 0.00 0.00 0.00 0.00 0.00 0.00 0.01 0.01 0.02 0.03 0.03 0.03 0.02 0.02 0.02 0.01 0.01 0.01 0.01 0.01 0.01 0.03 0.04 0.04 0.05 0.04 0.02 0.02 0.05 0.11 0.15 0.19 0.20 0.16 0.10 0.10 0.10 0.09 0.09 0.09 0.10 0.12 0.09 0.05 0.03 0.02
0.00 0.01 0.01 0.01 0.00 0.00 0.00 0.01 0.01 0.02 0.02 0.02 0.03 0.03 0.04 0.03 0.03 0.03 0.02 0.01 0.01 0.01 0.01 0.01 0.02 0.03 0.04 0.04 0.05 0.03 0.02 0.05 0.10 0.15 0.21 0.22 0.18 0.12 0.10 0.09 0.07 0.08 0.09 0.09 0.12 0.11 0.07 0.05 0.03
0.00 0.01 0.01 0.01 0.01 0.01 0.01 0.01 0.01 0.02 0.02 0.02 0.02 0.03 0.04 0.03 0.04 0.04 0.03 0.02 0.01 0.01 0.00 0.01 0.01 0.02 0.04 0.05 0.06 0.04 0.03 0.05 0.08 0.12 0.19 0.21 0.19 0.15 0.12 0.10 0.06 0.06 0.07 0.07 0.10 0.11 0.07 0.05 0.03
0.00 0.01 0.01 0.01 0.01 0.01 0.01 0.01 0.01 0.02 0.02 0.02 0.02 0.02 0.03 0.03 0.04 0.05 0.04 0.02 0.02 0.01 0.00 0.00 0.01 0.01 0.03 0.05 0.06 0.05 0.04 0.04 0.07 0.11 0.16 0.20 0.19 0.15 0.14 0.12 0.06 0.05 0.06 0.06 0.08 0.10 0.09 0.06 0.03
0.00 0.01 0.01 0.01 0.01 0.02 0.01 0.01 0.01 0.01 0.01 0.02 0.02 0.02 0.03 0.05 0.05 0.05 0.05 0.03 0.02 0.02 0.01 0.01 0.01 0.01 0.02 0.05 0.06 0.07 0.05 0.05 0.07 0.10 0.15 0.21 0.20 0.17 0.14 0.13 0.08 0.06 0.06 0.07 0.07 0.08 0.08 0.07 0.05
0.01 0.02 0.03 0.03 0.03 0.01 0.01 0.01 0.01 0.00 0.01 0.01 0.02 0.03 0.03 0.05 0.07 0.07 0.08 0.06 0.03 0.03 0.03 0.02 0.01 0.02 0.02 0.04 0.07 0.08 0.07 0.06 0.07 0.09 0.13 0.19 0.21 0.19 0.16 0.15 0.11 0.07 0.06 0.07 0.07 0.07 0.06 0.07 0.07
0.01 0.01 0.02 0.02 0.01 0.01 0.00 0.01 0.01 0.01 0.01 0.01 0.02 0.02 0.02 0.04 0.07 0.07 0.08 0.10 0.07 0.05 0.04 0.03 0.02 0.02 0.02 0.04 0.06 0.08 0.09 0.08 0.08 0.09 0.11 0.16 0.19 0.18 0.15 0.15 0.14 0.10 0.07 0.08 0.07 0.07 0.06 0.05 0.06
0.00 0.01 0.01 0.01 0.01 0.01 0.00 0.00 0.01 0.01 0.01 0.01 0.01 0.02 0.02 0.03 0.06 0.06 0.06 0.08 0.11 0.08 0.05 0.03 0.03 0.02 0.03 0.04 0.07 0.07 0.08 0.09 0.08 0.08 0.10 0.12 0.17 0.17 0.14 0.14 0.15 0.14 0.11 0.10 0.09 0.07 0.06 0.05 0.04
0.00 0.00 0.01 0.02 0.02 0.01 0.01 0.01 0.01 0.01 0.01 0.01 0.01 0.01 0.03 0.05 0.06 0.07 0.07 0.07 0.10 0.12 0.10 0.07 0.05 0.04 0.03 0.03 0.06 0.09 0.08 0.07 0.08 0.10 0.12 0.12 0.14 0.14 0.14 0.12 0.13 0.14 0.13 0.12 0.09 0.07 0.06 0.05 0.04
0.00 0.01 0.01 0.01 0.01 0.01 0.01 0.01 0.01 0.01 0.01 0.01 0.01 0.01 0.03 0.05 0.07 0.09 0.10 0.11 0.11 0.10 0.11 0.10 0.08 0.06 0.04 0.03 0.04 0.07 0.11 0.09 0.09 0.13 0.15 0.15 0.13 0.13 0.12 0.12 0.13 0.13 0.13 0.13 0.09 0.06 0.05 0.05 0.04
0.00 0.00 0.01 0.01 0.01 0.01 0.01 0.01 0.01 0.00 0.01 0.01 0.01 0.01 0.02 0.03 0.06 0.07 0.08 0.12 0.13 0.11 0.11 0.11 0.10 0.08 0.07 0.06 0.05 0.06 0.10 0.13 0.12 0.15 0.18 0.19 0.15 0.14 0.12 0.11 0.14 0.14 0.13 0.13 0.11 0.07 0.05 0.05 0.05
MSLP
1011.70 1011.66 1011.85 1012.26 1012.84 1013.50 1014.15 1014.71 1015.13 1015.43 1015.68 1015.98 1016.42 1017.08 1018.01 1019.16 1020.45 1021.74 1022.91 1023.82 1024.44 1024.73 1024.75 1024.58 1024.30 1024.01 1023.76 1023.54 1023.36 1023.16 1022.92 1022.60 1022.20 1021.73 1021.24 1020.76 1020.30 1019.90 1019.55 1019.24 1018.95 1018.69 1018.43 1018.20 1017.99 1017.83 1017.71 1017.62 1017.56
1011.90 1011.91 1012.14 1012.58 1013.18 1013.88 1014.57 1015.20 1015.71 1016.13 1016.50 1016.91 1017.45 1018.16 1019.08 1020.16 1021.34 1022.50 1023.51 1024.29 1024.79 1025.00 1024.99 1024.80 1024.54 1024.26 1024.02 1023.81 1023.63 1023.43 1023.20 1022.91 1022.55 1022.15 1021.72 1021.29 1020.88 1020.49 1020.12 1019.76 1019.41 1019.06 1018.73 1018.43 1018.18 1017.99 1017.86 1017.78 1017.72
1012.08 1012.15 1012.42 1012.88 1013.48 1014.17 1014.88 1015.54 1016.13 1016.65 1017.15 1017.69 1018.33 1019.11 1020.05 1021.11 1022.21 1023.24 1024.13 1024.79 1025.20 1025.35 1025.30 1025.11 1024.84 1024.57 1024.32 1024.09 1023.89 1023.68 1023.45 1023.17 1022.86 1022.51 1022.15 1021.78 1021.40 1021.02 1020.62 1020.21 1019.78 1019.35 1018.94 1018.58 1018.28 1018.06 1017.93 1017.85 1017.80
1012.21 1012.34 1012.65 1013.11 1013.70 1014.36 1015.05 1015.72 1016.35 1016.95 1017.56 1018.22 1018.97 1019.84 1020.82 1021.86 1022.90 1023.85 1024.63 1025.21 1025.54 1025.66 1025.59 1025.40 1025.15 1024.88 1024.62 1024.38 1024.15 1023.92 1023.67 1023.41 1023.12 1022.83 1022.52 1022.20 1021.86 1021.49 1021.07 1020.60 1020.11 1019.60 1019.12 1018.70 1018.37 1018.13 1017.98 1017.91 1017.86
1012.28 1012.47 1012.81 1013.27 1013.83 1014.45 1015.09 1015.74 1016.39 1017.05 1017.74 1018.50 1019.35 1020.29 1021.30 1022.33 1023.32 1024.20 1024.91 1025.42 1025.71 1025.81 1025.76 1025.61 1025.39 1025.15 1024.90 1024.65 1024.40 1024.15 1023.89 1023.62 1023.36 1023.10 1022.84 1022.57 1022.26 1021.91 1021.48 1020.99 1020.45 1019.89 1019.36 1018.90 1018.53 1018.27 1018.11 1018.02 1017.97
1012.32 1012.58 1012.94 1013.39 1013.91 1014.47 1015.06 1015.67 1016.30 1016.99 1017.74 1018.57 1019.49 1020.49 1021.51 1022.53 1023.47 1024.28 1024.92 1025.38 1025.66 1025.78 1025.78 1025.69 1025.54 1025.35 1025.14 1024.91 1024.66 1024.39 1024.11 1023.84 1023.59 1023.35 1023.13 1022.90 1022.63 1022.31 1021.90 1021.41 1020.85 1020.27 1019.72 1019.22 1018.83 1018.54 1018.35 1018.23 1018.14
1012.40 1012.72 1013.11 1013.55 1014.02 1014.51 1015.02 1015.58 1016.18 1016.87 1017.64 1018.52 1019.48 1020.50 1021.52 1022.50 1023.38 1024.13 1024.71 1025.14 1025.41 1025.57 1025.63 1025.63 1025.58 1025.49 1025.35 1025.15 1024.92 1024.64 1024.36 1024.08 1023.82 1023.60 1023.41 1023.22 1022.99 1022.71 1022.34 1021.87 1021.33 1020.76 1020.20 1019.70 1019.27 1018.95 1018.72 1018.54 1018.40
1012.61 1012.98 1013.39 1013.80 1014.22 1014.64 1015.08 1015.56 1016.12 1016.78 1017.56 1018.44 1019.42 1020.43 1021.43 1022.36 1023.18 1023.86 1024.38 1024.77 1025.05 1025.26 1025.40 1025.50 1025.56 1025.57 1025.51 1025.38 1025.17 1024.91 1024.62 1024.33 1024.07 1023.86 1023.69 1023.52 1023.34 1023.10 1022.78 1022.36 1021.86 1021.32 1020.77 1020.26 1019.82 1019.46 1019.16 1018.92 1018.70
1013.01 1013.41 1013.82 1014.21 1014.58 1014.92 1015.27 1015.68 1016.18 1016.79 1017.55 1018.42 1019.38 1020.37 1021.33 1022.21 1022.96 1023.57 1024.05 1024.41 1024.69 1024.94 1025.15 1025.35 1025.51 1025.62 1025.64 1025.58 1025.41 1025.17 1024.88 1024.59 1024.33 1024.11 1023.95 1023.81 1023.66 1023.46 1023.18 1022.82 1022.37 1021.87 1021.34 1020.84 1020.38 1019.97 1019.62 1019.29 1018.98
1013.58 1014.01 1014.42 1014.78 1015.09 1015.35 1015.63 1015.95 1016.37 1016.93 1017.64 1018.48 1019.40 1020.36 1021.28 1022.11 1022.81 1023.36 1023.79 1024.13 1024.42 1024.69 1024.95 1025.22 1025.47 1025.65 1025.75 1025.74 1025.62 1025.40 1025.12 1024.83 1024.56 1024.34 1024.18 1024.04 1023.91 1023.75 1023.52 1023.20 1022.80 1022.34 1021.84 1021.35 1020.88 1020.43 1020.02 1019.62 1019.22
1014.28 1014.72 1015.13 1015.46 1015.71 1015.91 1016.10 1016.33 1016.67 1017.16 1017.81 1018.59 1019.48 1020.39 1021.27 1022.07 1022.73 1023.25 1023.66 1023.98 1024.27 1024.55 1024.85 1025.16 1025.45 1025.69 1025.83 1025.86 1025.77 1025.57 1025.31 1025.02 1024.75 1024.52 1024.35 1024.22 1024.10 1023.94 1023.74 1023.46 1023.10 1022.68 1022.22 1021.74 1021.26 1020.79 1020.33 1019.86 1019.39
1014.99 1015.45 1015.85 1016.15 1016.36 1016.50 1016.61 1016.76 1017.01 1017.41 1017.98 1018.70 1019.53 1020.41 1021.26 1022.03 1022.69 1023.21 1023.61 1023.94 1024.24 1024.53 1024.84 1025.15 1025.46 1025.71 1025.87 1025.91 1025.84 1025.66 1025.41 1025.13 1024.86 1024.64 1024.46 1024.32 1024.19 1024.04 1023.85 1023.59 1023.26 1022.88 1022.45 1022.00 1021.53 1021.05 1020.56 1020.05 1019.52
1015.58 1016.06 1016.46 1016.76 1016.95 1017.03 1017.08 1017.14 1017.30 1017.60 1018.07 1018.71 1019.48 1020.32 1021.15 1021.93 1022.60 1023.15 1023.59 1023.95 1024.26 1024.57 1024.87 1025.18 1025.46 1025.70 1025.85 1025.89 1025.82 1025.65 1025.42 1025.16 1024.90 1024.68 1024.50 1024.36 1024.22 1024.07 1023.88 1023.63 1023.33 1022.97 1022.58 1022.16 1021.72 1021.25 1020.75 1020.22 1019.64
1015.96 1016.46 1016.89 1017.19 1017.36 1017.42 1017.40 1017.38 1017.44 1017.63 1018.00 1018.55 1019.25 1020.04 1020.87 1021.66 1022.38 1022.99 1023.50 1023.91 1024.27 1024.59 1024.89 1025.18 1025.43 1025.63 1025.75 1025.78 1025.71 1025.55 1025.34 1025.11 1024.88 1024.67 1024.50 1024.35 1024.21 1024.05 1023.86 1023.62 1023.34 1023.02 1022.67 1022.30 1021.89 1021.45 1020.97 1020.42 1019.82
1016.10 1016.63 1017.08 1017.40 1017.57 1017.60 1017.54 1017.45 1017.40 1017.49 1017.74 1018.18 1018.80 1019.55 1020.37 1021.19 1021.97 1022.66 1023.26 1023.75 1024.17 1024.53 1024.85 1025.12 1025.35 1025.51 1025.60 1025.60 1025.53 1025.38 1025.20 1025.00 1024.80 1024.62 1024.47 1024.33 1024.18 1024.02 1023.84 1023.61 1023.36 1023.08 1022.77 1022.45 1022.09 1021.70 1021.23 1020.69 1020.07
1016.06 1016.61 1017.09 1017.42 1017.59 1017.60 1017.49 1017.32 1017.19 1017.16 1017.29 1017.63 1018.16 1018.86 1019.67 1020.52 1021.37 1022.15 1022.84 1023.44 1023.94 1024.36 1024.70 1024.98 1025.19 1025.32 1025.39 1025.38 1025.30 1025.18 1025.02 1024.85 1024.69 1024.55 1024.41 1024.29 1024.15 1024.00 1023.82 1023.62 1023.39 1023.15 1022.90 1022.63 1022.33 1021.98 1021.55 1021.02 1020.38
1015.99 1016.53 1017.00 1017.33 1017.49 1017.46 1017.30 1017.06 1016.82 1016.69 1016.71 1016.95 1017.40 1018.05 1018.84 1019.72 1020.63 1021.50 1022.29 1022.99 1023.58 1024.06 1024.46 1024.75 1024.96 1025.10 1025.15 1025.13 1025.06 1024.95 1024.82 1024.69 1024.56 1024.44 1024.33 1024.22 1024.09 1023.95 1023.79 1023.60 1023.41 1023.22 1023.02 1022.80 1022.56 1022.26 1021.86 1021.35 1020.70
1016.02 1016.54 1016.96 1017.24 1017.34 1017.26 1017.02 1016.70 1016.38 1016.15 1016.08 1016.24 1016.62 1017.23 1018.01 1018.90 1019.85 1020.79 1021.67 1022.46 1023.14 1023.69 1024.14 1024.48 1024.71 1024.85 1024.91 1024.90 1024.84 1024.74 1024.63 1024.51 1024.40 1024.30 1024.19 1024.09 1023.97 1023.83 1023.68 1023.52 1023.36 1023.21 1023.06 1022.90 1022.71 1022.45 1022.09 1021.60 1020.96
1016.33 1016.75 1017.08 1017.26 1017.26 1017.07 1016.73 1016.32 1015.92 1015.62 1015.49 1015.58 1015.93 1016.51 1017.28 1018.19 1019.17 1020.15 1021.09 1021.95 1022.69 1023.31 1023.81 1024.19 1024.45 1024.62 1024.69 1024.70 1024.64 1024.55 1024.43 1024.31 1024.19 1024.08 1023.97 1023.85 1023.73 1023.59 1023.45 1023.30 1023.17 1023.05 1022.94 1022.83 1022.68 1022.48 1022.16 1021.70 1021.08
1016.98 1017.27 1017.44 1017.45 1017.28 1016.94 1016.48 1015.98 1015.50 1015.15 1014.99 1015.08 1015.42 1016.00 1016.77 1017.69 1018.69 1019.69 1020.66 1021.54 1022.32 1022.98 1023.52 1023.94 1024.23 1024.42 1024.52 1024.53 1024.47 1024.37 1024.23 1024.09 1023.93 1023.78 1023.63 1023.48 1023.34 1023.18 1023.03 1022.90 1022.78 1022.68 1022.61 1022.53 1022.43 1022.27 1022.00 1021.60 1021.02
1017.96 1018.08 1018.04 1017.83 1017.44 1016.92 1016.31 1015.69 1015.16 1014.79 1014.65 1014.77 1015.15 1015.76 1016.56 1017.50 1018.49 1019.49 1020.45 1021.33 1022.11 1022.77 1023.32 1023.76 1024.08 1024.28 1024.39 1024.40 1024.33 1024.19 1024.02 1023.82 1023.60 1023.38 1023.18 1022.97 1022.78 1022.60 1022.43 1022.29 1022.18 1022.10 1022.04 1021.99 1021.93 1021.81 1021.61 1021.27 1020.78
1019.17 1019.09 1018.81 1018.34 1017.71 1016.97 1016.20 1015.49 1014.92 1014.58 1014.49 1014.68 1015.14 1015.82 1016.67 1017.62 1018.61 1019.58 1020.50 1021.33 1022.07 1022.71 1023.24 1023.66 1023.98 1024.19 1024.29 1024.29 1024.19 1024.01 1023.78 1023.50 1023.20 1022.90 1022.61 1022.34 1022.09 1021.87 1021.68 1021.52 1021.41 1021.33 1021.28 1021.25 1021.22 1021.15 1021.01 1020.76 1020.37
1020.43 1020.16 1019.64 1018.91 1018.04 1017.09 1016.17 1015.38 1014.80 1014.50 1014.50 1014.81 1015.37 1016.14 1017.05 1018.02 1019.00 1019.93 1020.78 1021.54 1022.20 1022.77 1023.25 1023.64 1023.94 1024.12 1024.21 1024.18 1024.04 1023.80 1023.50 1023.14 1022.75 1022.36 1021.99 1021.64 1021.33 1021.07 1020.85 1020.67 1020.54 1020.46 1020.41 1020.39 1020.38 1020.36 1020.28 1020.12 1019.85
1021.57 1021.13 1020.40 1019.44 1018.35 1017.23 1016.20 1015.36 1014.80 1014.58 1014.69 1015.12 1015.81 1016.68 1017.65 1018.64 1019.59 1020.45 1021.22 1021.88 1022.45 1022.93 1023.34 1023.67 1023.92 1024.07 1024.11 1024.04 1023.85 1023.56 1023.18 1022.74 1022.26 1021.79 1021.33 1020.92 1020.56 1020.26 1020.01 1019.82 1019.68 1019.58 1019.53 1019.51 1019.51 1019.51 1019.49 1019.41 1019.25
1022.44 1021.87 1020.98 1019.86 1018.62 1017.39 1016.29 1015.45 1014.93 1014.80 1015.03 1015.58 1016.39 1017.34 1018.36 1019.36 1020.27 1021.07 1021.74 1022.30 1022.75 1023.13 1023.45 1023.70 1023.89 1023.99 1023.98 1023.86 1023.62 1023.26 1022.82 1022.30 1021.75 1021.21 1020.69 1020.23 1019.83 1019.50 1019.23 1019.02 1018.87 1018.76 1018.69 1018.66 1018.66 1018.67 1018.68 1018.67 1018.61
1022.95 1022.31 1021.34 1020.13 1018.82 1017.55 1016.45 1015.64 1015.19 1015.16 1015.50 1016.15 1017.04 1018.05 1019.09 1020.07 1020.94 1021.66 1022.23 1022.68 1023.03 1023.31 1023.53 1023.71 1023.82 1023.86 1023.79 1023.62 1023.32 1022.91 1022.40 1021.82 1021.22 1020.62 1020.06 1019.56 1019.14 1018.79 1018.51 1018.29 1018.12 1017.99 1017.91 1017.85 1017.83 1017.83 1017.86 1017.88 1017.89
1023.09 1022.44 1021.46 1020.25 1018.96 1017.72 1016.68 1015.94 1015.58 1015.63 1016.05 1016.77 1017.70 1018.73 1019.75 1020.69 1021.49 1022.13 1022.61 1022.97 1023.22 1023.41 1023.55 1023.64 1023.68 1023.65 1023.53 1023.29 1022.94 1022.48 1021.92 1021.30 1020.65 1020.02 1019.43 1018.91 1018.46 1018.10 1017.81 1017.58 1017.39 1017.24 1017.13 1017.04 1016.99 1016.97 1016.98 1017.01 1017.05
1022.95 1022.32 1021.39 1020.26 1019.06 1017.93 1016.99 1016.35 1016.08 1016.19 1016.66 1017.39 1018.30 1019.29 1020.26 1021.13 1021.86 1022.42 1022.82 1023.10 1023.28 1023.40 1023.46 1023.49 1023.46 1023.36 1023.18 1022.88 1022.48 1021.96 1021.36 1020.70 1020.02 1019.36 1018.75 1018.21 1017.74 1017.36 1017.05 1016.80 1016.59 1016.41 1016.26 1016.14 1016.05 1015.99 1015.98 1016.00 1016.06
1022.62 1022.04 1021.21 1020.20 1019.14 1018.16 1017.35 1016.83 1016.64 1016.79 1017.24 1017.94 1018.78 1019.69 1020.57 1021.35 1021.99 1022.48 1022.83 1023.05 1023.19 1023.26 1023.27 1023.24 1023.15 1022.99 1022.74 1022.38 1021.92 1021.35 1020.71 1020.01 1019.30 1018.61 1017.97 1017.40 1016.90 1016.49 1016.14 1015.85 1015.60 1015.39 1015.20 1015.05 1014.92 1014.84 1014.80 1014.81 1014.86
1022.24 1021.71 1020.98 1020.12 1019.23 1018.41 1017.75 1017.33 1017.19 1017.35 1017.77 1018.38 1019.12 1019.91 1020.67 1021.35 1021.91 1022.34 1022.65 1022.85 1022.96 1023.00 1022.99 1022.91 1022.77 1022.54 1022.22 1021.80 1021.27 1020.66 1019.96 1019.23 1018.48 1017.75 1017.06 1016.44 1015.89 1015.41 1015.00 1014.66 1014.35 1014.10 1013.88 1013.69 1013.55 1013.46 1013.41 1013.42 1013.48
Thickness
5701 5706 5708 5701 5686 5678 5683 5697 5705 5699 5697 5696 5697 5695 5686 5677 5674 5664 5664 5670 5671 5672 5672 5673 5675 5677 5679 5681 5682 5684 5685 5686 5688 5689 5691 5693 5693 5694 5695 5696 5697 5697 5698 5698 5698 5698 5698 5698 5698
5697 5702 5699 5689 5675 5670 5682 5694 5692 5689 5688 5691 5692 5691 5682 5671 5669 5664 5662 5663 5665 5667 5667 5668 5669 5671 5673 5675 5677 5678 5680 5681 5683 5684 5686 5687 5689 5690 5690 5691 5692 5693 5693 5694 5694 5694 5694 5694 5694
5694 5696 5686 5679 5674 5674 5682 5687 5683 5683 5685 5684 5680 5678 5670 5662 5660 5656 5655 5657 5659 5660 5661 5662 5663 5665 5667 5669 5671 5672 5674 5676 5677 5679 5680 5682 5683 5685 5685 5686 5687 5687 5688 5689 5689 5690 5690 5689 5689
5687 5684 5680 5670 5671 5680 5682 5682 5679 5677 5676 5676 5672 5662 5658 5656 5652 5649 5650 5652 5652 5652 5653 5654 5656 5658 5660 5662 5664 5666 5668 5670 5671 5673 5675 5676 5677 5679 5680 5681 5682 5682 5683 5684 5684 5685 5685 5685 5685
5680 5673 5665 5662 5670 5676 5677 5675 5672 5667 5666 5665 5664 5654 5645 5645 5644 5643 5643 5644 5644 5644 5645 5646 5648 5650 5652 5654 5657 5659 5661 5664 5665 5667 5668 5669 5670 5672 5674 5675 5676 5677 5678 5678 5679 5679 5680 5680 5680
5667 5666 5655 5655 5664 5668 5668 5666 5664 5660 5656 5655 5652 5645 5636 5635 5635 5635 5636 5635 5636 5636 5637 5638 5639 5641 5643 5646 5648 5651 5654 5656 5658 5660 5662 5663 5665 5666 5667 5669 5670 5671 5672 5673 5673 5674 5674 5674 5674
5656 5655 5652 5658 5658 5656 5656 5656 5651 5646 5643 5641 5641 5635 5629 5626 5626 5627 5627 5627 5627 5627 5628 5629 5630 5632 5635 5637 5640 5643 5646 5648 5651 5653 5655 5657 5658 5659 5660 5662 5663 5665 5666 5667 5667 5668 5668 5669 5669
5652 5648 5648 5650 5648 5645 5646 5645 5642 5637 5633 5634 5631 5622 5618 5618 5618 5618 5618 5618 5618 5618 5619 5620 5621 5623 5625 5628 5631 5634 5637 5640 5643 5645 5647 5649 5650 5652 5653 5655 5656 5658 5659 5661 5661 5662 5662 5663 5663
5648 5634 5632 5636 5637 5634 5635 5632 5629 5628 5623 5620 5616 5612 5613 5611 5609 5608 5607 5607 5608 5609 5609 5609 5611 5613 5615 5618 5621 5624 5628 5631 5634 5637 5639 5641 5643 5644 5646 5648 5649 5651 5653 5654 5655 5655 5656 5657 5657
5633 5620 5623 5625 5625 5622 5621 5620 5615 5612 5609 5606 5603 5601 5600 5598 5598 5597 5597 5597 5596 5596 5597 5599 5600 5602 5605 5608 5611 5614 5618 5621 5624 5628 5630 5633 5635 5637 5639 5640 5642 5643 5645 5646 5647 5648 5649 5650 5651
5622 5615 5617 5614 5612 5611 5609 5607 5605 5600 5596 5595 5592 5590 5588 5586 5586 5587 5586 5586 5585 5586 5586 5587 5589 5591 5594 5597 5600 5604 5607 5611 5615 5618 5621 5624 5626 5629 5631 5632 5634 5636 5638 5638 5639 5641 5642 5644 5645
5610 5606 5608 5602 5600 5598 5597 5596 5592 5588 5587 5591 5588 5583 5579 5577 5576 5577 5576 5576 5575 5575 5575 5577 5578 5581 5583 5586 5589 5593 5596 5600 5604 5607 5611 5614 5617 5620 5622 5624 5626 5628 5629 5631 5632 5633 5635 5637 5638
5600 5595 5594 5592 5589 5587 5586 5583 5581 5579 5579 5581 5578 5573 5570 5568 5567 5567 5566 5565 5564 5564 5564 5565 5567 5569 5572 5575 5578 5581 5585 5588 5592 5596 5600 5604 5607 5610 5612 5616 5618 5619 5621 5623 5624 5626 5627 5629 5630
5591 5587 5584 5583 5580 5578 5574 5573 5571 5571 5572 5570 5567 5562 5559 5558 5557 5556 5555 5554 5553 5552 5552 5553 5555 5557 5561 5564 5566 5569 5573 5576 5581 5584 5589 5593 5597 5600 5603 5606 5609 5610 5611 5614 5616 5617 5619 5621 5622
5581 5575 5574 5575 5573 5569 5563 5559 5562 5565 5564 5560 5557 5553 5550 5548 5546 5545 5544 5543 5542 5541 5541 5542 5543 5545 5548 5551 5554 5557 5560 5564 5568 5572 5577 5581 5586 5589 5593 5596 5599 5601 5602 5604 5607 5608 5610 5612 5614
5573 5567 5564 5570 5567 5561 5551 5548 5560 5558 5554 5549 5546 5543 5540 5538 5536 5535 5534 5532 5531 5530 5530 5530 5531 5533 5536 5539 5541 5544 5548 5552 5556 5560 5565 5569 5574 5578 5581 5585 5588 5590 5592 5595 5597 5599 5600 5602 5603
5561 5557 5561 5560 5560 5556 5545 5542 5551 5549 5545 5541 5537 5533 5530 5528 5526 5524 5523 5521 5519 5519 5518 5518 5519 5521 5523 5526 5529 5532 5535 5539 5544 5548 5552 5556 5561 5565 5569 5573 5576 5579 5583 5585 5588 5589 5591 5592 5593
5550 5551 5556 5553 5551 5546 5537 5537 5542 5540 5537 5533 5529 5524 5521 5519 5516 5514 5512 5510 5508 5507 5506 5506 5507 5508 5511 5513 5517 5520 5523 5527 5531 5535 5539 5543 5548 5552 5557 5560 5564 5567 5571 5574 5576 5579 5581 5582 5584
5544 5542 5541 5544 5542 5534 5530 5530 5534 5534 5529 5524 5520 5515 5512 5510 5507 5505 5502 5499 5497 5495 5494 5495 5495 5497 5499 5502 5504 5507 5511 5514 5519 5523 5526 5531 5535 5539 5544 5548 5551 5555 5559 5563 5566 5569 5570 5571 5574
5536 5532 5533 5537 5532 5526 5522 5523 5529 5529 5524 5518 5514 5508 5505 5502 5498 5495 5492 5489 5486 5484 5484 5484 5484 5485 5488 5490 5493 5496 5499 5503 5506 5510 5515 5519 5522 5527 5532 5536 5540 5543 5547 5551 5556 5559 5559 5561 5564
5529 5524 5523 5518 5516 5520 5512 5514 5524 5523 5520 5514 5508 5502 5498 5494 5489 5485 5483 5480 5477 5475 5474 5475 5474 5475 5477 5479 5481 5485 5488 5491 5495 5499 5503 5507 5511 5516 5522 5526 5529 5532 5536 5541 5545 5548 5550 5551 5554
5517 5517 5512 5506 5496 5499 5506 5493 5516 5515 5509 5505 5497 5492 5488 5485 5481 5476 5473 5471 5468 5466 5465 5464 5465 5466 5467 5469 5471 5474 5477 5480 5484 5487 5492 5496 5501 5506 5510 5515 5519 5522 5526 5530 5534 5537 5539 5541 5544
5504 5504 5500 5496 5490 5485 5495 5484 5500 5508 5499 5494 5490 5485 5480 5476 5472 5467 5463 5462 5460 5458 5456 5455 5455 5456 5458 5460 5462 5464 5468 5471 5474 5478 5481 5486 5490 5495 5500 5505 5508 5512 5516 5520 5523 5526 5528 5531 5534
5495 5493 5493 5488 5481 5476 5490 5481 5491 5495 5493 5488 5482 5477 5472 5467 5463 5458 5454 5452 5451 5449 5447 5446 5446 5448 5449 5451 5453 5455 5458 5461 5465 5468 5471 5475 5479 5484 5489 5494 5498 5502 5505 5509 5513 5516 5518 5521 5524
5483 5478 5476 5474 5472 5482 5489 5481 5483 5491 5488 5480 5473 5467 5462 5457 5452 5448 5445 5443 5442 5441 5440 5440 5440 5440 5441 5443 5444 5447 5450 5454 5457 5460 5463 5465 5469 5474 5479 5484 5488 5491 5496 5499 5502 5506 5508 5511 5513
5474 5472 5464 5459 5469 5478 5473 5473 5481 5479 5474 5469 5464 5458 5452 5447 5443 5440 5438 5435 5434 5433 5432 5432 5433 5433 5434 5436 5438 5440 5443 5446 5449 5453 5455 5457 5460 5465 5470 5474 5477 5481 5486 5489 5492 5496 5498 5500 5503
5466 5459 5458 5451 5452 5448 5469 5483 5476 5470 5462 5457 5452 5447 5442 5438 5435 5432 5429 5427 5426 5425 5425 5425 5425 5426 5428 5429 5431 5434 5436 5438 5442 5445 5447 5449 5453 5457 5461 5464 5467 5472 5476 5480 5482 5485 5488 5490 5493
5452 5451 5442 5437 5437 5443 5468 5474 5462 5451 5448 5443 5439 5435 5433 5430 5427 5425 5422 5420 5419 5418 5418 5418 5418 5419 5420 5422 5423 5427 5429 5431 5434 5437 5439 5443 5446 5449 5453 5455 5458 5463 5467 5469 5472 5475 5478 5480 5483
5438 5438 5435 5433 5438 5432 5437 5451 5449 5442 5436 5432 5428 5425 5422 5420 5418 5416 5414 5413 5411 5411 5412 5412 5412 5412 5414 5415 5417 5418 5421 5423 5426 5429 5432 5435 5438 5440 5443 5446 5450 5453 5457 5459 5462 5465 5468 5470 5472
5436 5433 5426 5416 5418 5422 5419 5431 5438 5432 5427 5422 5417 5415 5411 5409 5408 5406 5404 5404 5403 5403 5403 5404 5405 5405 5407 5408 5409 5411 5413 5415 5417 5420 5423 5426 5429 5433 5435 5437 5440 5444 5447 5449 5452 5454 5457 5459 5462